| time (UTC) | temp F | wind direction | speed MPH | gust MPH | rain 1hr in | rain 24hr in | rain mn in | humidity % | barometer mb |
| 20260504150500 | 65 | 199 | 7.0 | 21.0 | 0.00 | 0.00 | 0.00 | 34 | 1009.8 |
| 20260504140452 | 63 | 196 | 5.0 | 5.0 | 0.00 | 0.00 | 0.00 | 38 | 1010.3 |
| 20260504130435 | 58 | 192 | 4.0 | 9.0 | 0.00 | 0.00 | 0.00 | 44 | 1011.1 |
| 20260504110409 | 44 | 102 | 2.0 | 4.0 | 0.00 | 0.00 | 0.00 | 79 | 1011.2 |
| 20260504100354 | 41 | 81 | 3.0 | 3.0 | 0.00 | 0.00 | 0.00 | 75 | 1010.8 |
| 20260504081337 | 45 | 111 | 3.0 | 3.0 | 0.00 | 0.00 | 0.00 | 63 | 1010.3 |
| 20260504080336 | 45 | 103 | 3.0 | 4.0 | 0.00 | 0.00 | 0.00 | 63 | 1010.3 |
| 20260504070332 | 44 | 95 | 2.0 | 3.0 | 0.00 | 0.00 | 0.00 | 67 | 1010.3 |
| 20260504050311 | 40 | 96 | 2.0 | 2.0 | 0.00 | 0.00 | 0.00 | 75 | 1010.2 |
| 20260504045308 | 40 | 96 | 2.0 | 2.0 | 0.00 | 0.00 | 0.00 | 75 | 1010.5 |
| 20260504044303 | 40 | 105 | 2.0 | 3.0 | 0.00 | 0.00 | 0.00 | 74 | 1010.5 |
| 20260504043303 | 42 | 86 | 2.0 | 3.0 | 0.00 | 0.00 | 0.00 | 70 | 1010.5 |
| 20260504042304 | 42 | 86 | 2.0 | 3.0 | 0.00 | 0.00 | 0.00 | 70 | 1010.4 |
| 20260504041300 | 42 | 86 | 2.0 | 3.0 | 0.00 | 0.00 | 0.00 | 70 | 1010.5 |
| 20260504040300 | 42 | 88 | 1.0 | 2.0 | 0.00 | 0.00 | 0.00 | 69 | 1010.4 |
| 20260504035259 | 42 | 89 | 1.0 | 2.0 | 0.00 | 0.00 | 0.00 | 68 | 1010.3 |
| 20260504034254 | 42 | 95 | 2.0 | 2.0 | 0.00 | 0.00 | 0.00 | 68 | 1010.2 |
| 20260504033254 | 43 | 114 | 2.0 | 2.0 | 0.00 | 0.00 | 0.00 | 68 | 1010.4 |
| 20260504032254 | 43 | 94 | 2.0 | 2.0 | 0.00 | 0.00 | 0.00 | 66 | 1010.2 |
| 20260504031254 | 43 | 103 | 2.0 | 2.0 | 0.00 | 0.00 | 0.00 | 66 | 1010.1 |
| 20260504030254 | 44 | 112 | 2.0 | 2.0 | 0.00 | 0.00 | 0.00 | 65 | 1010.2 |
| 20260504025253 | 44 | 105 | 1.0 | 2.0 | 0.00 | 0.00 | 0.00 | 63 | 1010.3 |
| 20260504024252 | 44 | 103 | 2.0 | 2.0 | 0.00 | 0.00 | 0.00 | 63 | 1010.1 |
| 20260504023251 | 45 | 116 | 2.0 | 2.0 | 0.00 | 0.00 | 0.00 | 59 | 1010.0 |
| 20260504022249 | 45 | 114 | 2.0 | 2.0 | 0.00 | 0.00 | 0.00 | 60 | 1010.2 |
| 20260504021244 | 45 | 105 | 2.0 | 2.0 | 0.00 | 0.00 | 0.00 | 59 | 1010.1 |
| 20260504020243 | 46 | 114 | 2.0 | 2.0 | 0.00 | 0.00 | 0.00 | 58 | 1010.0 |
| 20260504015241 | 46 | 107 | 2.0 | 2.0 | 0.00 | 0.00 | 0.00 | 60 | 1009.9 |
| 20260504014240 | 46 | 106 | 2.0 | 2.0 | 0.00 | 0.00 | 0.00 | 58 | 1009.9 |
| 20260504013235 | 47 | 100 | 2.0 | 2.0 | 0.00 | 0.00 | 0.00 | 57 | 1009.8 |
| 20260504012235 | 48 | 108 | 2.0 | 2.0 | 0.00 | 0.00 | 0.00 | 56 | 1009.7 |
| 20260504011234 | 48 | 115 | 2.0 | 3.0 | 0.00 | 0.00 | 0.00 | 55 | 1009.6 |
| 20260504010232 | 47 | 94 | 2.0 | 2.0 | 0.00 | 0.00 | 0.00 | 56 | 1009.5 |
| 20260504005232 | 47 | 92 | 2.0 | 2.0 | 0.00 | 0.00 | 0.00 | 54 | 1009.4 |
| 20260504004232 | 47 | 78 | 2.0 | 2.0 | 0.00 | 0.00 | 0.00 | 53 | 1009.0 |
| 20260504003232 | 47 | 109 | 2.0 | 2.0 | 0.00 | 0.00 | 0.00 | 54 | 1009.1 |
| 20260504002231 | 52 | 78 | 2.0 | 2.0 | 0.00 | 0.00 | 0.00 | 39 | 1008.9 |
| 20260504001231 | 52 | 78 | 2.0 | 2.0 | 0.00 | 0.00 | 0.00 | 39 | 1008.7 |
| 20260504000230 | 52 | 78 | 2.0 | 2.0 | 0.00 | 0.00 | 0.00 | 39 | 1008.6 |
| 20260503235226 | 52 | 78 | 2.0 | 2.0 | 0.00 | 0.00 | 0.00 | 39 | 1008.5 |
| 20260503234221 | 53 | 103 | 2.0 | 2.0 | 0.00 | 0.00 | 0.00 | 37 | 1008.4 |
| 20260503233219 | 53 | 103 | 2.0 | 2.0 | 0.00 | 0.00 | 0.00 | 36 | 1008.3 |
| 20260503232219 | 54 | 126 | 4.0 | 4.0 | 0.00 | 0.00 | 0.00 | 35 | 1008.4 |
| 20260503231214 | 55 | 173 | 1.0 | 5.0 | 0.00 | 0.00 | 0.00 | 35 | 1008.2 |
| 20260503230214 | 56 | 191 | 1.0 | 4.0 | 0.00 | 0.00 | 0.00 | 33 | 1008.2 |
| 20260503225211 | 56 | 48 | 2.0 | 6.0 | 0.00 | 0.00 | 0.00 | 32 | 1008.1 |
| 20260503224206 | 57 | 9 | 3.0 | 11.0 | 0.00 | 0.00 | 0.00 | 32 | 1008.0 |
| 20260503223201 | 57 | 23 | 7.0 | 8.0 | 0.00 | 0.00 | 0.00 | 32 | 1008.2 |
| 20260503222155 | 56 | 70 | 4.0 | 7.0 | 0.00 | 0.00 | 0.00 | 34 | 1007.9 |
| 20260503221150 | 57 | 33 | 3.0 | 3.0 | 0.00 | 0.00 | 0.00 | 34 | 1007.7 |
| 20260503220149 | 56 | 23 | 2.0 | 3.0 | 0.00 | 0.00 | 0.00 | 34 | 1008.0 |
| 20260503215149 | 57 | 12 | 4.0 | 4.0 | 0.00 | 0.00 | 0.00 | 34 | 1008.0 |
| 20260503214149 | 57 | 235 | 5.0 | 15.0 | 0.00 | 0.00 | 0.00 | 33 | 1008.0 |
| 20260503213145 | 56 | 19 | 3.0 | 9.0 | 0.00 | 0.00 | 0.00 | 36 | 1008.1 |
| 20260503212140 | 55 | 21 | 5.0 | 7.0 | 0.00 | 0.00 | 0.00 | 35 | 1008.0 |
| 20260503211138 | 56 | 143 | 6.0 | 6.0 | 0.00 | 0.00 | 0.00 | 35 | 1008.2 |
| 20260503210138 | 53 | 20 | 4.0 | 6.0 | 0.00 | 0.00 | 0.00 | 37 | 1007.8 |
| 20260503205135 | 55 | 15 | 4.0 | 14.0 | 0.00 | 0.00 | 0.00 | 35 | 1007.9 |
| 20260503204135 | 55 | 26 | 4.0 | 6.0 | 0.00 | 0.00 | 0.00 | 36 | 1008.0 |
| 20260503203135 | 53 | 40 | 4.0 | 8.0 | 0.00 | 0.00 | 0.00 | 37 | 1007.9 |
| 20260503202130 | 54 | 112 | 4.0 | 7.0 | 0.00 | 0.00 | 0.00 | 36 | 1007.7 |
| 20260503201125 | 53 | 75 | 4.0 | 12.0 | 0.00 | 0.00 | 0.00 | 37 | 1008.0 |
| 20260503200124 | 54 | 60 | 5.0 | 9.0 | 0.00 | 0.00 | 0.00 | 37 | 1007.9 |
| 20260503195123 | 56 | 18 | 6.0 | 9.0 | 0.00 | 0.00 | 0.00 | 35 | 1007.7 |
| 20260503194121 | 55 | 348 | 6.0 | 8.0 | 0.00 | 0.00 | 0.00 | 37 | 1007.9 |
| 20260503193120 | 54 | 21 | 4.0 | 15.0 | 0.00 | 0.00 | 0.00 | 36 | 1007.8 |
| 20260503192117 | 55 | 304 | 5.0 | 9.0 | 0.00 | 0.00 | 0.00 | 35 | 1007.7 |
| 20260503191117 | 53 | 354 | 4.0 | 7.0 | 0.00 | 0.00 | 0.00 | 37 | 1007.8 |
| 20260503190117 | 54 | 347 | 6.0 | 9.0 | 0.00 | 0.00 | 0.00 | 35 | 1007.7 |
| 20260503185114 | 54 | 171 | 4.0 | 15.0 | 0.00 | 0.00 | 0.00 | 37 | 1007.7 |
| 20260503184112 | 54 | 49 | 0.0 | 8.0 | 0.00 | 0.00 | 0.00 | 37 | 1007.9 |
| 20260503183112 | 55 | 255 | 5.0 | 9.0 | 0.00 | 0.00 | 0.00 | 35 | 1008.0 |
| 20260503182108 | 55 | 22 | 3.0 | 8.0 | 0.00 | 0.00 | 0.00 | 36 | 1007.6 |
| 20260503181107 | 55 | 334 | 6.0 | 9.0 | 0.00 | 0.00 | 0.00 | 35 | 1007.6 |
| 20260503175056 | 54 | 33 | 7.0 | 13.0 | 0.00 | 0.00 | 0.00 | 35 | 1007.8 |
| 20260503174055 | 54 | 14 | 6.0 | 10.0 | 0.00 | 0.00 | 0.00 | 36 | 1007.8 |
| 20260503173053 | 53 | 91 | 7.0 | 9.0 | 0.00 | 0.00 | 0.00 | 41 | 1008.1 |
| 20260503172053 | 51 | 41 | 11.0 | 12.0 | 0.00 | 0.00 | 0.00 | 41 | 1008.0 |
| 20260503171053 | 53 | 14 | 5.0 | 6.0 | 0.00 | 0.00 | 0.00 | 40 | 1007.9 |